Location: Eckley Miners' Village
(40.9930°N, 75.8630°W)
Time: 08:43:28
(UTC-05:00)

SR - All Passes

Search period start: 10 December 2025 00:00
Search period end: 20 December 2025 00:00
Orbit: 577 x 845 km, 66.7° (Epoch: 09 December)

Date Brightness Start Highest point End Pass type
(mag) Time Alt. Az. Time Alt. Az. Time Alt. Az.
10 Dec - 04:56:59 10° NNE 04:58:08 11° NE 04:59:18 10° ENE visible
10 Dec - 06:36:01 10° NNW 06:40:28 77° ENE 06:45:14 10° SSE visible
10 Dec - 08:20:20 10° W 08:21:35 11° WSW 08:22:51 10° WSW daylight
10 Dec - 21:03:16 10° S 21:07:31 47° ESE 21:11:36 10° NE night (unlit)
10 Dec - 22:46:19 10° W 22:49:23 18° NW 22:52:23 10° N night (unlit)
11 Dec - 05:41:36 10° NNW 05:45:37 33° NE 05:49:51 10° ESE visible
11 Dec - 07:23:21 10° NW 07:27:09 27° WSW 07:31:10 10° SSW daylight
11 Dec - 20:09:55 10° SSE 20:13:00 19° ESE 20:16:00 10° ENE night (unlit)
11 Dec - 21:50:14 10° SW 21:54:21 40° NW 21:58:22 10° NNE night (unlit)
12 Dec - 04:47:46 10° N 04:50:32 16° NE 04:53:22 10° E visible
12 Dec - 06:28:07 10° NW 06:32:33 67° WSW 06:37:19 10° SSE visible
12 Dec - 20:55:10 10° SSW 20:59:33 80° ESE 21:03:48 10° NNE night (unlit)
12 Dec - 22:39:50 10° WNW 22:41:44 13° NW 22:43:36 10° NNW night (unlit)
13 Dec - 05:33:27 10° NNW 05:37:47 51° ENE 05:42:25 10° SE visible
13 Dec - 07:16:08 10° WNW 07:19:06 17° WSW 07:22:12 10° SSW daylight
13 Dec - 20:01:05 10° S 20:04:56 30° ESE 20:08:41 10° NE night (unlit)
13 Dec - 21:42:54 10° WSW 21:46:33 26° NW 21:50:08 10° N night (unlit)
14 Dec - 04:39:15 10° N 04:42:50 23° NE 04:46:34 10° ESE visible
14 Dec - 06:20:21 10° NW 06:24:35 41° WSW 06:29:06 10° S visible
14 Dec - 19:08:51 10° SE 19:10:31 12° ESE 19:12:08 10° E night (unlit)
14 Dec - 20:47:18 10° SW 20:51:38 62° WNW 20:55:50 10° NNE night (unlit)
15 Dec - 03:46:02 10° NNE 03:47:37 12° NE 03:49:13 10° ENE visible
15 Dec - 05:25:25 10° NNW 05:29:54 81° ENE 05:34:43 10° SSE visible
15 Dec - 07:10:13 10° W 07:11:00 10° WSW 07:11:47 10° WSW daylight
15 Dec - 19:52:41 10° S 19:56:55 50° ESE 20:01:02 10° NE night (unlit)
15 Dec - 21:35:55 10° W 21:38:49 17° NW 21:41:43 10° N night (unlit)
16 Dec - 04:30:57 10° NNW 04:35:03 35° NE 04:39:24 10° ESE visible
16 Dec - 06:12:48 10° NW 06:16:34 26° WSW 06:20:33 10° SSW visible
16 Dec - 18:59:13 10° SSE 19:02:23 20° ESE 19:05:29 10° ENE visible
16 Dec - 20:39:43 10° WSW 20:43:46 38° NW 20:47:44 10° NNE night (unlit)
17 Dec - 03:37:02 10° N 03:39:59 17° NE 03:43:01 10° E visible
17 Dec - 05:17:30 10° NW 05:21:58 63° WSW 05:26:45 10° SSE visible
17 Dec - 19:44:34 10° SSW 19:48:56 86° ESE 19:53:11 10° NNE visible
17 Dec - 21:29:32 10° WNW 21:31:10 12° NW 21:32:48 10° NNW night (unlit)
18 Dec - 04:22:47 10° NNW 04:27:12 54° ENE 04:31:55 10° SE visible
18 Dec - 06:05:37 10° WNW 06:08:29 16° WSW 06:11:28 10° SSW visible
18 Dec - 18:50:25 10° S 18:54:18 32° ESE 18:58:06 10° NE visible
18 Dec - 20:32:25 10° WSW 20:35:57 24° NW 20:39:27 10° N visible
19 Dec - 03:28:32 10° N 03:32:14 25° NE 03:36:08 10° ESE visible
19 Dec - 05:09:44 10° NW 05:13:58 39° WSW 05:18:29 10° S visible
19 Dec - 17:57:56 10° SE 17:59:51 13° ESE 18:01:44 10° E visible
19 Dec - 19:36:44 10° SW 19:41:00 57° WNW 19:45:10 10° NNE visible
